FW8369 Weather Reports


time (UTC)temp
C
wind
direction
speed
KPH
gust
KPH
rain 1hr
cm
rain 24hr
cm
rain mn
cm
humidity
%
barometer
mb
20260509053904 24 31 0.0 4.8 0.00 4.78 3.28 86 1014.2
20260509053404 24 53 3.2 8.0 0.00 4.78 3.28 86 1014.3
20260509051904 24 63 6.4 12.9 0.00 4.78 3.28 85 1014.6
20260509051404 25 22 3.2 4.8 0.00 4.78 3.28 85 1014.7
20260509050904 25 333 0.0 1.6 0.00 4.78 3.28 85 1014.7
20260509050404 25 56 1.6 8.0 0.00 4.78 3.28 85 1014.8
20260509045404 24 331 0.0 1.6 0.00 4.78 3.28 86 1014.7
20260509044904 24 277 0.0 3.2 0.00 4.78 3.28 87 1014.8
20260509044404 24 314 0.0 3.2 0.00 4.78 3.28 87 1014.9
20260509043904 24 304 0.0 1.6 0.00 4.78 3.28 87 1015.0
20260509042904 24 298 0.0 1.6 0.00 4.78 3.28 88 1015.1
20260509042404 23 332 0.0 4.8 0.00 4.78 3.28 88 1015.2
20260509041904 23 305 0.0 1.6 0.00 4.78 3.28 88 1015.3
20260509041403 23 286 0.0 4.8 0.00 4.78 3.28 89 1015.3
20260509040904 23 49 1.6 4.8 0.00 4.78 3.28 89 1015.3
20260509035904 23 4 4.8 14.5 0.00 4.78 3.28 89 1015.3
20260509035404 23 60 8.0 12.9 0.00 4.78 3.28 89 1015.3
20260509034903 23 13 3.2 8.0 0.00 4.78 3.28 89 1015.4
20260509034404 23 48 4.8 9.7 0.00 4.78 3.28 89 1015.5
20260509033904 23 54 3.2 16.1 0.00 4.78 3.28 89 1015.5
20260509033404 23 329 0.0 12.9 0.00 4.78 3.28 89 1015.5
20260509032904 23 51 1.6 8.0 0.00 4.78 3.28 90 1015.6
20260509031904 23 64 3.2 9.7 0.00 4.78 3.28 89 1015.6
20260509031404 23 14 0.0 8.0 0.00 4.78 3.28 90 1015.8
20260509030904 23 30 1.6 11.3 0.00 4.78 3.28 90 1015.7
20260509030404 23 55 8.0 14.5 0.00 4.78 3.28 89 1015.6
20260509025904 23 38 1.6 8.0 0.00 4.78 3.28 89 1015.5
20260509025404 24 55 3.2 9.7 0.00 4.78 3.28 89 1015.4
20260509024903 24 39 1.6 4.8 0.00 4.78 3.28 89 1015.4
20260509024404 23 58 4.8 9.7 0.00 4.78 3.28 89 1015.5
20260509023904 24 292 0.0 1.6 0.00 4.78 3.28 91 1015.4
20260509023404 23 17 0.0 4.8 0.00 4.78 3.28 91 1015.4
20260509022905 23 57 1.6 4.8 0.00 4.78 3.28 91 1015.4
20260509022403 23 319 1.6 4.8 0.00 4.78 3.28 91 1015.4
20260509021904 23 50 1.6 4.8 0.00 4.78 3.28 91 1015.6
20260509021404 23 61 8.0 14.5 0.00 4.78 3.28 91 1015.7
20260509020904 23 58 8.0 14.5 0.00 4.78 3.28 91 1015.8
20260509020403 23 11 1.6 4.8 0.00 4.78 3.28 91 1015.8
20260509015904 23 19 3.2 8.0 0.00 4.78 3.28 91 1015.7
20260509015403 23 46 4.8 9.7 0.00 4.78 3.28 91 1015.7
20260509014904 23 13 0.0 3.2 0.00 4.78 3.28 91 1015.7
20260509013404 23 356 1.6 4.8 0.00 4.78 3.28 91 1015.6
20260509012904 23 11 1.6 4.8 0.00 4.78 3.28 92 1015.6
20260509012404 23 41 3.2 9.7 0.00 4.78 3.28 92 1015.6
20260509011904 23 58 4.8 11.3 0.00 4.78 3.28 92 1015.5
20260509011404 23 36 8.0 16.1 0.00 4.78 3.28 92 1015.5
20260509010904 23 54 3.2 11.3 0.00 4.78 3.28 92 1015.4
20260509010405 23 25 1.6 4.8 0.00 4.78 3.28 93 1015.4
20260509005904 23 47 3.2 11.3 0.03 4.78 3.28 93 1015.5
20260509005404 23 53 3.2 8.0 0.05 4.78 3.28 93 1015.4
20260509004904 23 63 1.6 9.7 0.08 4.78 3.28 94 1015.3
20260509003904 23 322 0.0 4.8 0.13 4.78 3.28 95 1015.1
20260509003404 23 10 0.0 3.2 0.15 4.78 3.28 95 1015.0
20260509002904 23 45 3.2 4.8 0.20 4.78 3.28 95 1015.0
20260509002404 23 40 1.6 4.8 0.23 4.78 3.28 95 1014.8
20260509001904 23 310 0.0 3.2 0.25 4.78 3.28 95 1014.8
20260509001404 23 2 0.0 1.6 0.28 4.78 3.28 95 1014.8
20260509000904 23 300 0.0 0.0 0.30 4.78 3.28 95 1014.8
20260509000404 23 300 0.0 4.8 0.30 4.78 3.28 95 1014.7
20260508235904 23 60 3.2 4.8 0.30 4.75 3.25 95 1014.7
20260508235404 23 353 1.6 4.8 0.30 4.72 3.23 95 1014.7
20260508234405 23 17 4.8 8.0 0.28 4.67 3.17 94 1014.7
20260508233904 23 36 1.6 3.2 0.25 4.65 3.15 95 1014.6
20260508233404 23 29 1.6 4.8 0.25 4.62 3.12 95 1014.6
20260508232904 23 55 3.2 8.0 0.20 4.57 3.07 95 1014.6
20260508232404 23 60 3.2 4.8 0.18 4.55 3.05 95 1014.6
20260508231904 23 333 0.0 4.8 0.15 4.52 3.02 95 1014.4
20260508231403 23 8 3.2 4.8 0.13 4.50 3.00 95 1014.3
20260508225904 23 314 1.6 3.2 0.10 4.45 2.95 95 1014.2
20260508225404 23 330 0.0 3.2 0.08 4.42 2.92 95 1014.1
20260508224904 23 346 0.0 0.0 0.05 4.39 2.90 95 1014.0
20260508224403 23 40 1.6 3.2 0.05 4.39 2.90 95 1013.9
20260508223904 23 310 0.0 0.0 0.05 4.39 2.90 95 1013.9
20260508223404 23 310 0.0 1.6 0.03 4.37 2.87 95 1013.7
20260508222904 23 350 0.0 1.6 0.03 4.37 2.87 95 1013.7
20260508222404 23 313 0.0 1.6 0.03 4.37 2.87 96 1013.7
20260508221904 23 314 0.0 1.6 0.03 4.37 2.87 96 1013.7
20260508221403 23 21 0.0 4.8 0.03 4.37 2.87 96 1013.5
20260508220904 23 337 0.0 1.6 0.03 4.37 2.87 96 1013.5
20260508215904 23 315 0.0 1.6 0.03 4.34 2.84 96 1013.1
20260508215404 23 309 0.0 1.6 0.03 4.34 2.84 96 1013.1
20260508214904 23 10 0.0 4.8 0.03 4.34 2.84 96 1013.1
20260508214404 23 342 1.6 4.8 0.05 4.34 2.84 96 1013.1
20260508213404 23 356 1.6 3.2 0.08 4.34 2.84 96 1012.9
20260508212903 23 332 0.0 0.0 0.10 4.34 2.84 96 1013.0
20260508212404 23 341 0.0 1.6 0.10 4.34 2.84 96 1013.0
20260508211404 23 346 0.0 3.2 0.15 4.34 2.84 96 1012.9
20260508210903 23 289 0.0 4.8 0.15 4.34 2.84 96 1012.8
20260508205404 23 31 0.0 4.8 0.15 4.32 2.82 96 1012.5
20260508204904 23 11 0.0 3.2 0.15 4.32 2.82 96 1012.4
20260508204404 23 8 0.0 3.2 0.15 4.29 2.79 96 1012.4
20260508202904 23 33 1.6 4.8 0.15 4.24 2.74 96 1012.2
20260508202404 23 54 1.6 4.8 0.18 4.24 2.74 96 1012.2
20260508201904 23 35 3.2 4.8 0.20 4.22 2.72 96 1012.2
20260508201404 23 13 3.2 4.8 0.25 4.19 2.69 96 1012.2
20260508200904 23 49 1.6 4.8 0.33 4.19 2.69 96 1012.2
20260508200404 23 43 1.6 4.8 0.41 4.19 2.69 96 1012.2
20260508195904 23 5 1.6 4.8 0.46 4.19 2.69 96 1012.2
20260508195404 23 49 3.2 4.8 0.48 4.17 2.67 96 1012.3
20260508193404 24 346 0.0 3.2 0.81 4.11 2.62 97 1012.4
20260508192904 24 350 0.0 4.8 0.89 4.09 2.59 97 1012.3
20260508192404 24 59 1.6 4.8 0.91 4.06 2.57 96 1012.3
20260508191904 24 58 1.6 8.0 0.97 4.01 2.51 96 1012.2
20260508190904 24 334 0.0 4.8 0.94 3.86 2.36 97 1012.2
20260508190404 24 40 1.6 4.8 0.91 3.78 2.29 96 1012.2
20260508185904 24 314 0.0 4.8 0.89 3.73 2.24 96 1012.1
20260508185404 24 296 1.6 3.2 0.91 3.68 2.18 97 1012.1
20260508184904 24 310 0.0 1.6 0.97 3.61 2.11 97 1012.2
20260508183904 24 311 0.0 9.7 1.04 3.48 1.98 97 1012.3
20260508183404 24 138 1.6 4.8 0.89 3.30 1.80 97 1012.2
20260508182904 24 320 0.0 3.2 0.79 3.20 1.70 96 1012.2
20260508182404 24 359 1.6 4.8 0.76 3.15 1.65 96 1012.3
20260508181904 25 25 1.6 8.0 0.66 3.05 1.55 97 1012.3
20260508180904 25 283 0.0 1.6 0.58 2.92 1.42 97 1012.3
20260508180404 25 320 0.0 0.0 0.56 2.87 1.37 97 1012.3
20260508175904 24 320 1.6 4.8 0.53 2.84 1.35 97 1012.3
20260508175404 24 299 1.6 4.8 0.48 2.77 1.27 97 1012.3
20260508174904 24 320 0.0 3.2 0.41 2.64 1.14 97 1012.3
20260508174404 24 325 1.6 3.2 0.30 2.51 1.02 96 1012.3
20260508173904 24 324 1.6 3.2 0.28 2.44 0.94 96 1012.3
20260508173404 25 324 0.0 1.6 0.28 2.41 0.91 96 1012.3
20260508172904 25 320 0.0 0.0 0.33 2.41 0.91 97 1012.5
20260508172405 25 321 0.0 1.6 0.38 2.39 0.89 96 1012.5
20260508171904 25 322 1.6 1.6 0.46 2.39 0.89 97 1012.5
20260508171404 25 322 0.0 1.6 0.48 2.34 0.84 96 1012.5
20260508170904 25 346 1.6 3.2 0.64 2.34 0.84 96 1012.5
20260508170404 25 347 3.2 4.8 0.71 2.31 0.81 96 1012.5
20260508165904 25 347 1.6 3.2 0.89 2.31 0.81 96 1012.6
20260508165404 25 320 0.0 4.8 1.07 2.29 0.79 96 1012.6
20260508164904 25 344 0.0 3.2 1.22 2.24 0.74 96 1012.6
20260508164404 25 337 1.6 3.2 1.45 2.21 0.71 96 1012.6
20260508163404 25 333 0.0 0.0 0.13 2.13 0.64 96 1012.6
20260508162904 25 334 0.0 3.2 0.36 2.08 0.58 96 1012.6
20260508161904 25 341 3.2 3.2 0.43 1.93 0.43 95 1012.8
20260508161404 25 342 1.6 4.8 0.36 1.85 0.36 95 1012.8
20260508160404 26 297 0.0 3.2 0.10 1.60 0.10 95 1012.9
20260508155904 26 299 0.0 1.6 1.50 1.50 1.50 95 1012.9
20260508155404 26 314 0.0 1.6 1.27 1.27 1.27 94 1012.9
20260508154904 26 315 1.6 3.2 1.04 1.04 1.04 94 1012.9
20260508154404 26 296 0.0 4.8 0.81 0.81 0.81 94 1012.9
20260508153404 26 324 0.0 1.6 0.51 0.51 0.51 94 1012.9
20260508152904 26 332 0.0 0.0 0.23 0.23 0.23 93 1012.9
20260508152404 26 334 1.6 9.7 0.05 0.05 0.05 92 1012.8
20260508151905 26 21 3.2 8.0 0.00 0.00 0.00 91 1012.8
20260508151404 26 339 3.2 8.0 0.00 0.00 0.00 90 1012.8
20260508150904 27 346 4.8 8.0 0.00 0.00 0.00 88 1012.8
20260508150404 27 350 3.2 8.0 0.00 0.00 0.00 88 1012.7
20260508145904 27 355 3.2 4.8 0.00 0.00 0.00 88 1012.7
20260508145404 27 333 0.0 1.6 0.00 0.00 0.00 88 1012.7
20260508144904 27 337 1.6 3.2 0.00 0.00 0.00 88 1012.8
20260508144404 27 337 1.6 3.2 0.00 0.00 0.00 88 1012.9
20260508143904 27 343 1.6 3.2 0.00 0.00 0.00 88 1013.0
20260508143404 27 346 3.2 4.8 0.00 0.00 0.00 88 1013.0
20260508142904 27 341 1.6 4.8 0.00 0.00 0.00 88 1013.0
20260508142404 27 334 1.6 3.2 0.00 0.00 0.00 87 1013.1
20260508141904 27 337 0.0 3.2 0.00 0.00 0.00 87 1013.0
20260508141404 27 338 1.6 4.8 0.00 0.00 0.00 88 1013.1
20260508140904 27 325 1.6 3.2 0.00 0.00 0.00 88 1013.0
20260508140404 27 325 0.0 4.8 0.00 0.00 0.00 88 1013.0
20260508135404 27 11 1.6 4.8 0.00 0.00 0.00 87 1012.9
20260508133904 27 41 4.8 8.0 0.00 0.00 0.00 86 1012.8
20260508133405 27 340 1.6 3.2 0.00 0.00 0.00 86 1012.6
20260508132904 27 311 1.6 3.2 0.00 0.00 0.00 87 1012.6
20260508132404 27 332 3.2 8.0 0.00 0.00 0.00 87 1012.6
20260508131904 27 349 1.6 3.2 0.00 0.00 0.00 87 1012.6
20260508131404 27 334 1.6 3.2 0.00 0.00 0.00 87 1012.6
20260508130903 27 342 3.2 3.2 0.00 0.00 0.00 87 1012.6
20260508130404 27 340 3.2 4.8 0.00 0.00 0.00 86 1012.5
20260508125904 27 1 3.2 4.8 0.00 0.00 0.00 86 1012.5
20260508125403 27 38 1.6 3.2 0.00 0.00 0.00 86 1012.4
20260508124904 27 340 1.6 3.2 0.00 0.00 0.00 86 1012.4
20260508123404 27 356 1.6 3.2 0.00 0.00 0.00 86 1012.1
20260508122905 27 10 1.6 3.2 0.00 0.00 0.00 86 1012.1
20260508122404 27 22 3.2 4.8 0.00 0.00 0.00 85 1012.1
20260508121404 28 356 1.6 3.2 0.00 0.00 0.00 85 1011.9
20260508120903 28 274 1.6 1.6 0.00 0.00 0.00 85 1011.8
20260508115903 28 274 1.6 3.2 0.00 0.00 0.00 85 1011.6
20260508115404 27 275 0.0 1.6 0.00 0.00 0.00 85 1011.7
20260508114904 27 266 1.6 3.2 0.00 0.00 0.00 85 1011.6
20260508114404 28 266 0.0 3.2 0.00 0.00 0.00 85 1011.5
20260508113903 28 268 0.0 3.2 0.00 0.00 0.00 85 1011.5
20260508113404 28 322 0.0 1.6 0.00 0.00 0.00 85 1011.5
20260508111904 27 326 0.0 3.2 0.00 0.00 0.00 85 1011.3
20260508111404 27 333 1.6 4.8 0.00 0.00 0.00 85 1011.3
20260508110404 27 53 1.6 4.8 0.00 0.00 0.00 84 1011.3
20260508105404 28 7 1.6 4.8 0.00 0.00 0.00 84 1011.2
20260508104911 28 0 1.6 4.8 0.00 0.00 0.00 83 1011.1
20260508104404 28 335 1.6 3.2 0.00 0.00 0.00 83 1011.1
20260508103904 28 344 0.0 0.0 0.00 0.00 0.00 83 1011.0
20260508103404 28 307 0.0 0.0 0.00 0.00 0.00 83 1011.0
20260508102903 28 287 0.0 0.0 0.00 0.00 0.00 82 1011.0
20260508102404 28 288 0.0 0.0 0.00 0.00 0.00 82 1010.9
20260508101904 28 288 0.0 0.0 0.00 0.00 0.00 83 1010.8
20260508101407 28 288 0.0 0.0 0.00 0.00 0.00 83 1010.8
20260508100903 28 287 0.0 0.0 0.00 0.00 0.00 82 1010.8
20260508100404 28 289 0.0 0.0 0.00 0.00 0.00 83 1010.6
20260508095904 28 285 0.0 1.6 0.00 0.00 0.00 82 1010.4
20260508095404 28 285 0.0 0.0 0.00 0.00 0.00 82 1010.3
20260508094903 28 286 1.6 3.2 0.00 0.00 0.00 82 1010.3
20260508094404 28 314 0.0 1.6 0.00 0.00 0.00 82 1010.3
20260508093904 28 284 0.0 3.2 0.00 0.00 0.00 82 1010.2
20260508093404 29 309 1.6 4.8 0.00 0.00 0.00 81 1010.2
20260508092404 29 298 0.0 1.6 0.00 0.00 0.00 81 1010.2
20260508091905 29 298 0.0 1.6 0.00 0.00 0.00 81 1010.2
20260508091404 29 300 0.0 1.6 0.00 0.00 0.00 81 1010.3
20260508090903 28 301 0.0 1.6 0.00 0.00 0.00 82 1010.3
20260508090404 28 350 3.2 4.8 0.00 0.00 0.00 82 1010.2
20260508085904 28 346 0.0 4.8 0.00 0.00 0.00 82 1010.0
20260508085404 28 0 1.6 4.8 0.00 0.00 0.00 82 1010.0
20260508084903 28 322 1.6 4.8 0.00 0.00 0.00 82 1010.0
20260508084404 29 355 3.2 4.8 0.00 0.00 0.00 80 1010.0
20260508083904 29 60 1.6 3.2 0.00 0.00 0.00 79 1010.1
20260508082904 29 308 1.6 4.8 0.00 0.00 0.00 80 1010.0
20260508082404 30 350 4.8 8.0 0.00 0.00 0.00 78 1010.0
20260508081904 30 313 0.0 3.2 0.00 0.00 0.00 77 1010.0
20260508081404 30 322 1.6 4.8 0.00 0.00 0.00 77 1010.1
20260508080904 30 266 1.6 3.2 0.00 0.00 0.00 77 1010.1
20260508080403 30 323 1.6 4.8 0.00 0.00 0.00 77 1010.1
20260508075904 30 323 1.6 3.2 0.00 0.00 0.00 77 1010.1
20260508074404 31 266 0.0 1.6 0.00 0.00 0.00 76 1010.2
20260508073905 31 260 0.0 3.2 0.00 0.00 0.00 76 1010.3
20260508073404 31 266 0.0 3.2 0.00 0.00 0.00 76 1010.3
20260508072904 31 300 1.6 4.8 0.00 0.00 0.00 76 1010.3
20260508071904 31 301 1.6 8.0 0.00 0.00 0.00 75 1010.3
20260508071404 32 324 1.6 8.0 0.00 0.00 0.00 73 1010.3
20260508070904 32 290 0.0 1.6 0.00 0.00 0.00 73 1010.4
20260508070404 31 237 1.6 4.8 0.00 0.00 0.00 74 1010.4
20260508065404 31 220 1.6 4.8 0.00 0.00 0.00 75 1010.5
20260508064904 31 42 3.2 4.8 0.00 0.00 0.00 76 1010.6
20260508064404 31 304 1.6 4.8 0.00 0.00 0.00 76 1010.6
20260508063904 31 4 3.2 8.0 0.00 0.00 0.00 73 1010.7
20260508063404 32 311 1.6 4.8 0.00 0.00 0.00 74 1010.8
20260508062905 25 310 0.0 0.0 0.00 0.00 0.00 90 1010.9